Time,TemperatureF,DewpointF,PressureIn,WindDirection,WindDirectionDegrees,WindSpeedMPH,WindSpeedGustMPH,Humidity,HourlyPrecipIn,Conditions,Clouds,dailyrainin,SolarRadiationWatts/m^2,SoftwareType,DateUTC
2013-04-17 00:02:00,74.0,16.0,29.79,WSW,241,6.0,12.0,11,-99.99,,,-99.99,0.000000,,2013-04-17 06:02:00,
2013-04-17 00:12:00,74.0,17.0,29.80,WSW,248,3.0,12.0,11,-99.99,,,-99.99,0.000000,,2013-04-17 06:12:00,
2013-04-17 00:22:00,74.0,17.0,29.80,WSW,248,3.0,12.0,11,-99.99,,,-99.99,0.000000,,2013-04-17 06:22:00,
2013-04-17 00:32:00,72.0,16.0,29.80,SSW,202,6.0,10.0,11,-99.99,,,-99.99,0.000000,,2013-04-17 06:32:00,
2013-04-17 00:42:00,72.0,18.0,29.80,SW,219,9.0,17.0,12,-99.99,,,-99.99,0.000000,,2013-04-17 06:42:00,
2013-04-17 00:52:00,72.0,18.0,29.80,SW,219,9.0,17.0,12,-99.99,,,-99.99,0.000000,,2013-04-17 06:52:00,
2013-04-17 01:02:00,72.0,19.0,29.80,SW,215,10.0,17.0,12,-99.99,,,-99.99,0.000000,,2013-04-17 07:02:00,
2013-04-17 01:12:00,72.0,19.0,29.80,SW,218,14.0,21.0,13,-99.99,,,-99.99,0.000000,,2013-04-17 07:12:00,
2013-04-17 01:22:00,72.0,19.0,29.80,SW,218,14.0,21.0,13,-99.99,,,-99.99,0.000000,,2013-04-17 07:22:00,
2013-04-17 01:32:00,72.0,19.0,29.80,WSW,238,13.0,27.0,13,-99.99,,,-99.99,0.000000,,2013-04-17 07:32:00,
2013-04-17 01:42:00,73.0,16.0,29.79,SW,234,17.0,30.0,11,-99.99,,,-99.99,0.000000,,2013-04-17 07:42:00,
2013-04-17 01:52:00,73.0,16.0,29.79,SW,234,17.0,30.0,11,-99.99,,,-99.99,0.000000,,2013-04-17 07:52:00,
2013-04-17 02:02:00,73.0,13.0,29.79,SW,234,19.0,36.0,10,-99.99,,,-99.99,0.000000,,2013-04-17 08:02:00,
2013-04-17 02:12:00,73.0,13.0,29.78,SW,232,21.0,38.0,9,-99.99,,,-99.99,0.000000,,2013-04-17 08:12:00,
2013-04-17 02:22:00,73.0,13.0,29.78,SW,232,21.0,38.0,9,-99.99,,,-99.99,0.000000,,2013-04-17 08:22:00,
2013-04-17 02:32:00,72.0,13.0,29.77,SW,231,21.0,32.0,10,-99.99,,,-99.99,0.000000,,2013-04-17 08:32:00,
2013-04-17 02:42:00,72.0,13.0,29.77,SW,232,22.0,39.0,10,-99.99,,,-99.99,0.000000,,2013-04-17 08:42:00,
2013-04-17 02:52:00,72.0,13.0,29.77,SW,232,22.0,39.0,10,-99.99,,,-99.99,0.000000,,2013-04-17 08:52:00,
2013-04-17 03:02:00,72.0,12.0,29.77,SW,234,23.0,39.0,9,-99.99,,,-99.99,0.000000,,2013-04-17 09:02:00,
2013-04-17 03:12:00,72.0,13.0,29.77,SW,223,19.0,36.0,10,-99.99,,,-99.99,0.000000,,2013-04-17 09:12:00,
2013-04-17 03:22:00,72.0,13.0,29.77,SW,223,19.0,36.0,10,-99.99,,,-99.99,0.000000,,2013-04-17 09:22:00,
2013-04-17 03:33:00,71.0,13.0,29.77,SW,216,17.0,30.0,10,-99.99,,,-99.99,0.000000,,2013-04-17 09:33:00,
2013-04-17 03:42:00,71.0,13.0,29.77,SSW,208,14.0,27.0,10,-99.99,,,-99.99,0.000000,,2013-04-17 09:42:00,
2013-04-17 03:52:00,71.0,13.0,29.77,SSW,208,14.0,27.0,10,-99.99,,,-99.99,0.000000,,2013-04-17 09:52:00,
2013-04-17 04:02:00,70.0,14.0,29.77,SSW,206,11.0,22.0,11,-99.99,,,-99.99,0.000000,,2013-04-17 10:02:00,
2013-04-17 04:12:00,69.0,13.0,29.76,SSW,192,10.0,26.0,11,-99.99,,,-99.99,0.000000,,2013-04-17 10:12:00,
2013-04-17 04:23:00,69.0,13.0,29.76,SSW,192,10.0,26.0,11,-99.99,,,-99.99,0.000000,,2013-04-17 10:23:00,
2013-04-17 04:32:00,69.0,13.0,29.76,SSW,207,11.0,23.0,11,-99.99,,,-99.99,0.000000,,2013-04-17 10:32:00,
2013-04-17 04:42:00,68.0,13.0,29.76,SW,215,9.0,17.0,11,-99.99,,,-99.99,0.000000,,2013-04-17 10:42:00,
2013-04-17 04:53:00,68.0,13.0,29.76,SW,215,9.0,17.0,11,-99.99,,,-99.99,0.000000,,2013-04-17 10:53:00,
2013-04-17 05:02:00,68.0,14.0,29.76,SW,214,10.0,18.0,12,-99.99,,,-99.99,0.000000,,2013-04-17 11:02:00,
2013-04-17 05:12:00,67.0,14.0,29.76,SSW,212,10.0,21.0,12,-99.99,,,-99.99,0.000000,,2013-04-17 11:12:00,
2013-04-17 05:22:00,67.0,14.0,29.76,SSW,212,10.0,21.0,12,-99.99,,,-99.99,0.000000,,2013-04-17 11:22:00,
2013-04-17 05:32:00,66.0,14.0,29.76,South,190,10.0,20.0,13,-99.99,,,-99.99,0.000000,,2013-04-17 11:32:00,
2013-04-17 05:42:00,63.0,16.0,29.76,SSE,168,11.0,15.0,15,-99.99,,,-99.99,0.000000,,2013-04-17 11:42:00,
2013-04-17 05:52:00,63.0,16.0,29.76,SSE,168,11.0,15.0,15,-99.99,,,-99.99,0.000000,,2013-04-17 11:52:00,
2013-04-17 06:02:00,63.0,16.0,29.76,South,181,11.0,17.0,15,-99.99,,,-99.99,0.000000,,2013-04-17 12:02:00,
2013-04-17 06:12:00,65.0,15.0,29.77,SSW,196,10.0,18.0,14,-99.99,,,-99.99,0.000000,,2013-04-17 12:12:00,
2013-04-17 06:22:00,65.0,15.0,29.77,SSW,196,10.0,18.0,14,-99.99,,,-99.99,0.000000,,2013-04-17 12:22:00,
2013-04-17 06:32:00,65.0,16.0,29.76,South,183,10.0,20.0,14,-99.99,,,-99.99,0.000000,,2013-04-17 12:32:00,
2013-04-17 06:42:00,65.0,16.0,29.77,SSW,196,8.0,14.0,15,-99.99,,,-99.99,0.000000,,2013-04-17 12:42:00,
2013-04-17 06:52:00,65.0,16.0,29.77,SSW,196,8.0,14.0,15,-99.99,,,-99.99,0.000000,,2013-04-17 12:52:00,
2013-04-17 07:02:00,66.0,17.0,29.77,SSE,168,11.0,21.0,14,-99.99,,,-99.99,0.700000,,2013-04-17 13:02:00,
2013-04-17 07:12:00,65.0,18.0,29.77,SSW,213,14.0,27.0,15,-99.99,,,-99.99,6.970000,,2013-04-17 13:12:00,
2013-04-17 07:22:00,65.0,18.0,29.77,SSW,213,14.0,27.0,15,-99.99,,,-99.99,6.970000,,2013-04-17 13:22:00,
2013-04-17 07:32:00,65.0,18.0,29.77,SSW,213,14.0,27.0,15,-99.99,,,-99.99,6.970000,,2013-04-17 13:32:00,
2013-04-17 07:42:00,65.0,18.0,29.77,SSW,213,14.0,27.0,15,-99.99,,,-99.99,6.970000,,2013-04-17 13:42:00,
2013-04-17 08:02:00,67.0,19.0,29.78,SW,217,11.0,20.0,16,-99.99,,,-99.99,150.619995,,2013-04-17 14:02:00,
2013-04-17 08:12:00,67.0,20.0,29.79,SW,224,13.0,21.0,16,-99.99,,,-99.99,199.440002,,2013-04-17 14:12:00,
2013-04-17 08:22:00,67.0,20.0,29.79,SW,224,13.0,21.0,16,-99.99,,,-99.99,199.440002,,2013-04-17 14:22:00,
2013-04-17 08:32:00,68.0,19.0,29.79,SW,228,14.0,23.0,15,-99.99,,,-99.99,251.039993,,2013-04-17 14:32:00,
2013-04-17 08:42:00,68.0,18.0,29.79,SW,222,12.0,19.0,14,-99.99,,,-99.99,305.429993,,2013-04-17 14:42:00,
2013-04-17 08:52:00,68.0,18.0,29.79,SW,222,12.0,19.0,14,-99.99,,,-99.99,305.429993,,2013-04-17 14:52:00,
2013-04-17 09:02:00,69.0,19.0,29.80,SW,214,12.0,21.0,14,-99.99,,,-99.99,360.519989,,2013-04-17 15:02:00,
2013-04-17 09:12:00,69.0,19.0,29.80,SW,218,12.0,21.0,14,-99.99,,,-99.99,417.010010,,2013-04-17 15:12:00,
2013-04-17 09:22:00,69.0,19.0,29.80,SW,218,12.0,21.0,14,-99.99,,,-99.99,417.010010,,2013-04-17 15:22:00,
2013-04-17 09:33:00,69.0,17.0,29.80,SW,219,12.0,19.0,13,-99.99,,,-99.99,473.489990,,2013-04-17 15:33:00,
2013-04-17 09:42:00,70.0,17.0,29.80,SW,223,14.0,22.0,12,-99.99,,,-99.99,527.179993,,2013-04-17 15:42:00,
2013-04-17 09:53:00,70.0,17.0,29.80,SW,223,14.0,22.0,12,-99.99,,,-99.99,527.179993,,2013-04-17 15:53:00,
2013-04-17 10:03:00,70.0,16.0,29.79,SW,224,14.0,24.0,12,-99.99,,,-99.99,576.690002,,2013-04-17 16:03:00,
2013-04-17 10:12:00,70.0,15.0,29.79,SW,226,18.0,34.0,11,-99.99,,,-99.99,622.020020,,2013-04-17 16:12:00,
2013-04-17 10:22:00,70.0,15.0,29.79,SW,226,18.0,34.0,11,-99.99,,,-99.99,622.020020,,2013-04-17 16:22:00,
2013-04-17 10:32:00,71.0,16.0,29.78,SW,219,22.0,35.0,12,-99.99,,,-99.99,660.369995,,2013-04-17 16:32:00,
2013-04-17 10:42:00,71.0,17.0,29.77,SW,227,19.0,35.0,12,-99.99,,,-99.99,669.440002,,2013-04-17 16:42:00,
2013-04-17 10:52:00,71.0,17.0,29.77,SW,227,19.0,35.0,12,-99.99,,,-99.99,669.440002,,2013-04-17 16:52:00,
2013-04-17 11:02:00,72.0,17.0,29.77,SW,221,23.0,38.0,12,-99.99,,,-99.99,720.349976,,2013-04-17 17:02:00,
2013-04-17 11:12:00,72.0,18.0,29.76,SW,215,24.0,39.0,12,-99.99,,,-99.99,748.239990,,2013-04-17 17:12:00,
2013-04-17 11:22:00,72.0,18.0,29.76,SW,215,24.0,39.0,12,-99.99,,,-99.99,748.239990,,2013-04-17 17:22:00,
2013-04-17 11:33:00,72.0,19.0,29.76,SW,216,22.0,35.0,13,-99.99,,,-99.99,797.750000,,2013-04-17 17:33:00,
2013-04-17 11:42:00,73.0,19.0,29.75,SSW,213,22.0,41.0,12,-99.99,,,-99.99,813.090027,,2013-04-17 17:42:00,
2013-04-17 11:52:00,73.0,19.0,29.75,SSW,213,22.0,41.0,12,-99.99,,,-99.99,813.090027,,2013-04-17 17:52:00,
2013-04-17 12:02:00,74.0,19.0,29.75,SW,223,20.0,35.0,12,-99.99,,,-99.99,843.080017,,2013-04-17 18:02:00,
2013-04-17 12:12:00,74.0,19.0,29.74,SW,225,19.0,36.0,12,-99.99,,,-99.99,860.510010,,2013-04-17 18:12:00,
2013-04-17 12:22:00,74.0,19.0,29.74,SW,225,19.0,36.0,12,-99.99,,,-99.99,860.510010,,2013-04-17 18:22:00,
2013-04-17 12:32:00,75.0,18.0,29.72,SW,233,26.0,52.0,11,-99.99,,,-99.99,877.940002,,2013-04-17 18:32:00,
2013-04-17 12:42:00,75.0,18.0,29.72,SW,232,25.0,40.0,11,-99.99,,,-99.99,899.559998,,2013-04-17 18:42:00,
2013-04-17 12:52:00,75.0,18.0,29.72,SW,232,25.0,40.0,11,-99.99,,,-99.99,899.559998,,2013-04-17 18:52:00,
2013-04-17 13:02:00,76.0,17.0,29.70,SW,235,26.0,42.0,10,-99.99,,,-99.99,890.489990,,2013-04-17 19:02:00,
2013-04-17 13:12:00,76.0,17.0,29.69,WSW,242,29.0,46.0,10,-99.99,,,-99.99,892.590027,,2013-04-17 19:12:00,
2013-04-17 13:22:00,76.0,17.0,29.69,WSW,242,29.0,46.0,10,-99.99,,,-99.99,892.590027,,2013-04-17 19:22:00,
2013-04-17 13:32:00,77.0,16.0,29.69,SW,234,25.0,41.0,10,-99.99,,,-99.99,880.729980,,2013-04-17 19:32:00,
2013-04-17 13:42:00,77.0,16.0,29.68,SW,231,27.0,47.0,10,-99.99,,,-99.99,893.280029,,2013-04-17 19:42:00,
2013-04-17 13:52:00,77.0,16.0,29.68,SW,231,27.0,47.0,10,-99.99,,,-99.99,893.280029,,2013-04-17 19:52:00,
2013-04-17 14:02:00,78.0,18.0,29.68,SW,229,27.0,42.0,10,-99.99,,,-99.99,907.929993,,2013-04-17 20:02:00,
2013-04-17 14:12:00,78.0,19.0,29.68,SW,231,26.0,45.0,10,-99.99,,,-99.99,896.770020,,2013-04-17 20:12:00,
2013-04-17 14:22:00,78.0,19.0,29.68,SW,231,26.0,45.0,10,-99.99,,,-99.99,896.770020,,2013-04-17 20:22:00,
2013-04-17 14:32:00,77.0,20.0,29.67,SW,225,28.0,44.0,11,-99.99,,,-99.99,900.260010,,2013-04-17 20:32:00,
2013-04-17 14:42:00,78.0,21.0,29.67,WSW,244,22.0,38.0,11,-99.99,,,-99.99,853.539978,,2013-04-17 20:42:00,
2013-04-17 14:52:00,78.0,21.0,29.67,WSW,244,22.0,38.0,11,-99.99,,,-99.99,853.539978,,2013-04-17 20:52:00,
2013-04-17 15:02:00,78.0,21.0,29.67,WSW,244,19.0,40.0,11,-99.99,,,-99.99,841.679993,,2013-04-17 21:02:00,
2013-04-17 15:12:00,78.0,18.0,29.67,WSW,257,25.0,42.0,10,-99.99,,,-99.99,819.369995,,2013-04-17 21:12:00,
2013-04-17 15:22:00,78.0,18.0,29.67,WSW,257,25.0,42.0,10,-99.99,,,-99.99,819.369995,,2013-04-17 21:22:00,
2013-04-17 15:33:00,78.0,19.0,29.67,WSW,249,27.0,48.0,10,-99.99,,,-99.99,792.169983,,2013-04-17 21:33:00,
2013-04-17 15:42:00,78.0,19.0,29.66,WSW,248,24.0,42.0,10,-99.99,,,-99.99,741.960022,,2013-04-17 21:42:00,
2013-04-17 15:53:00,78.0,19.0,29.66,WSW,248,24.0,42.0,10,-99.99,,,-99.99,741.960022,,2013-04-17 21:53:00,
2013-04-17 16:02:00,78.0,18.0,29.65,WSW,243,25.0,43.0,10,-99.99,,,-99.99,665.950012,,2013-04-17 22:02:00,
2013-04-17 16:12:00,78.0,20.0,29.64,WSW,249,29.0,50.0,11,-99.99,,,-99.99,633.179993,,2013-04-17 22:12:00,
2013-04-17 16:22:00,78.0,20.0,29.64,WSW,249,29.0,50.0,11,-99.99,,,-99.99,633.179993,,2013-04-17 22:22:00,
2013-04-17 16:33:00,77.0,22.0,29.65,WSW,255,28.0,45.0,12,-99.99,,,-99.99,590.640015,,2013-04-17 22:33:00,
2013-04-17 16:42:00,77.0,21.0,29.65,WSW,253,28.0,46.0,12,-99.99,,,-99.99,548.099976,,2013-04-17 22:42:00,
2013-04-17 16:53:00,77.0,21.0,29.65,WSW,253,28.0,46.0,12,-99.99,,,-99.99,548.099976,,2013-04-17 22:53:00,
2013-04-17 17:02:00,76.0,22.0,29.65,WSW,253,29.0,51.0,12,-99.99,,,-99.99,503.470001,,2013-04-17 23:02:00,
2013-04-17 17:12:00,76.0,22.0,29.64,West,260,30.0,48.0,13,-99.99,,,-99.99,438.619995,,2013-04-17 23:12:00,
2013-04-17 17:22:00,76.0,22.0,29.64,West,260,30.0,48.0,13,-99.99,,,-99.99,438.619995,,2013-04-17 23:22:00,
2013-04-17 17:32:00,75.0,23.0,29.64,West,259,31.0,54.0,14,-99.99,,,-99.99,368.890015,,2013-04-17 23:32:00,
2013-04-17 17:42:00,74.0,23.0,29.65,WSW,243,30.0,47.0,14,-99.99,,,-99.99,293.579987,,2013-04-17 23:42:00,
2013-04-17 17:52:00,74.0,23.0,29.65,WSW,243,30.0,47.0,14,-99.99,,,-99.99,293.579987,,2013-04-17 23:52:00,
2013-04-17 18:02:00,73.0,24.0,29.65,WSW,249,27.0,51.0,15,-99.99,,,-99.99,176.429993,,2013-04-18 00:02:00,
2013-04-17 18:12:00,72.0,24.0,29.66,WSW,252,26.0,45.0,16,-99.99,,,-99.99,168.059998,,2013-04-18 00:12:00,
2013-04-17 18:22:00,72.0,24.0,29.66,WSW,252,26.0,45.0,16,-99.99,,,-99.99,168.059998,,2013-04-18 00:22:00,
2013-04-17 18:32:00,72.0,24.0,29.68,West,263,24.0,42.0,16,-99.99,,,-99.99,152.020004,,2013-04-18 00:32:00,
2013-04-17 18:42:00,70.0,24.0,29.69,West,274,25.0,43.0,17,-99.99,,,-99.99,141.559998,,2013-04-18 00:42:00,
2013-04-17 18:52:00,70.0,24.0,29.69,West,274,25.0,43.0,17,-99.99,,,-99.99,141.559998,,2013-04-18 00:52:00,
2013-04-17 19:02:00,69.0,24.0,29.69,West,276,26.0,42.0,18,-99.99,,,-99.99,99.019997,,2013-04-18 01:02:00,
2013-04-17 19:12:00,68.0,23.0,29.70,West,278,26.0,46.0,18,-99.99,,,-99.99,81.589996,,2013-04-18 01:12:00,
2013-04-17 19:22:00,68.0,23.0,29.70,West,278,26.0,46.0,18,-99.99,,,-99.99,81.589996,,2013-04-18 01:22:00,
2013-04-17 19:32:00,67.0,22.0,29.72,West,274,26.0,41.0,18,-99.99,,,-99.99,45.330002,,2013-04-18 01:32:00,
2013-04-17 19:42:00,65.0,21.0,29.72,West,281,26.0,41.0,17,-99.99,,,-99.99,25.100000,,2013-04-18 01:42:00,
2013-04-17 19:52:00,65.0,21.0,29.72,West,281,26.0,41.0,17,-99.99,,,-99.99,25.100000,,2013-04-18 01:52:00,
2013-04-17 20:02:00,64.0,19.0,29.73,WNW,282,29.0,42.0,17,-99.99,,,-99.99,13.250000,,2013-04-18 02:02:00,
2013-04-17 20:12:00,63.0,19.0,29.74,WNW,288,29.0,47.0,17,-99.99,,,-99.99,3.490000,,2013-04-18 02:12:00,
2013-04-17 20:22:00,63.0,19.0,29.74,WNW,288,29.0,47.0,17,-99.99,,,-99.99,3.490000,,2013-04-18 02:22:00,
2013-04-17 20:32:00,62.0,18.0,29.76,WNW,289,30.0,49.0,17,-99.99,,,-99.99,0.700000,,2013-04-18 02:32:00,
2013-04-17 20:42:00,62.0,18.0,29.76,WNW,289,30.0,49.0,17,-99.99,,,-99.99,0.700000,,2013-04-18 02:42:00,
2013-04-17 20:52:00,62.0,18.0,29.76,WNW,289,30.0,49.0,17,-99.99,,,-99.99,0.700000,,2013-04-18 02:52:00,
2013-04-17 21:02:00,61.0,16.0,29.80,WNW,298,23.0,35.0,17,-99.99,,,-99.99,0.000000,,2013-04-18 03:02:00,
2013-04-17 21:12:00,60.0,16.0,29.82,NW,311,22.0,34.0,17,-99.99,,,-99.99,0.000000,,2013-04-18 03:12:00,
2013-04-17 21:22:00,60.0,16.0,29.82,NW,311,22.0,34.0,17,-99.99,,,-99.99,0.000000,,2013-04-18 03:22:00,
2013-04-17 21:33:00,59.0,16.0,29.83,NW,316,24.0,36.0,18,-99.99,,,-99.99,0.000000,,2013-04-18 03:33:00,
2013-04-17 21:43:00,58.0,15.0,29.86,NW,319,23.0,34.0,18,-99.99,,,-99.99,0.000000,,2013-04-18 03:43:00,
2013-04-17 21:53:00,58.0,15.0,29.86,NW,319,23.0,34.0,18,-99.99,,,-99.99,0.000000,,2013-04-18 03:53:00,
2013-04-17 22:03:00,58.0,15.0,29.88,NW,321,20.0,34.0,18,-99.99,,,-99.99,0.000000,,2013-04-18 04:03:00,
2013-04-17 22:13:00,57.0,15.0,29.89,NNW,327,20.0,38.0,18,-99.99,,,-99.99,0.000000,,2013-04-18 04:13:00,
2013-04-17 22:23:00,57.0,15.0,29.89,NNW,327,20.0,38.0,18,-99.99,,,-99.99,0.000000,,2013-04-18 04:23:00,
2013-04-17 22:33:00,57.0,15.0,29.91,NNW,331,17.0,29.0,19,-99.99,,,-99.99,0.000000,,2013-04-18 04:33:00,
2013-04-17 22:43:00,56.0,17.0,29.92,NNW,343,20.0,28.0,21,-99.99,,,-99.99,0.000000,,2013-04-18 04:43:00,
2013-04-17 22:53:00,56.0,17.0,29.92,NNW,343,20.0,28.0,21,-99.99,,,-99.99,0.000000,,2013-04-18 04:53:00,
2013-04-17 23:02:00,55.0,20.0,29.93,NNW,341,17.0,29.0,24,-99.99,,,-99.99,0.000000,,2013-04-18 05:02:00,
2013-04-17 23:12:00,54.0,20.0,29.94,NNW,342,13.0,23.0,25,-99.99,,,-99.99,0.000000,,2013-04-18 05:12:00,
2013-04-17 23:22:00,54.0,20.0,29.94,NNW,342,13.0,23.0,25,-99.99,,,-99.99,0.000000,,2013-04-18 05:22:00,
2013-04-17 23:33:00,53.0,22.0,29.94,North,352,16.0,26.0,29,-99.99,,,-99.99,0.000000,,2013-04-18 05:33:00,
2013-04-17 23:42:00,52.0,23.0,29.94,North,1,20.0,28.0,31,-99.99,,,-99.99,0.000000,,2013-04-18 05:42:00,
2013-04-17 23:52:00,52.0,23.0,29.94,North,1,20.0,28.0,31,-99.99,,,-99.99,0.000000,,2013-04-18 05:52:00,